Find OneWeb SL0710

NORAD ID: 55173 Int'l Des: 2023-004 Owner: ONEWEBN Country: UK Constellation: oneweb operational
LEOCIRCULARPOLARONEWEB_TYPE

リアルタイム位置

3D地球を読み込み中...

OneWeb SL0710について

説明を読み込み中...

次回通過

Passes for default location (London). Set your location on the main map for personalized predictions.

高度履歴

Loading altitude history...

軌道要素

1 55173U 23004AK 26106.01205337 .00000023 00000-0 26843-4 0 9998
2 55173 87.9189 18.2176 0001659 80.0376 280.0943 13.17648047159399
Epoch: Apr 16, 2026 • Age: 16 hours

現在のステータス

高度 1206.5 km
速度 7.25 km/s
衛星直下点 -32.75°S, 75.98°W
打ち上げ日 Jan 10, 2023
運用期間 3.2 years
タイプ internet

技術仕様

分類 Payload
質量 148.00 kg
乾燥質量 140.00 kg
総質量 148.00 kg
長さ 1.30 m
直径 1.00 m
スパン 5.00 m
形状 Trapezoid+2 pan
製造者 ONEWUS
バスタイプ ARROW
フェーズステータス In Orbit
所有者/国 ONEWEBN/UK

Most Searched